Retour au catalogue

DELTA 1 DEB

ActifLEO
NORAD 7127·DEBRIS·🇺🇸 United States

Lancé Nov 6, 1973 depuis Vandenberg Space Force Base

Loading…

Prochains Passages (prochaines 24 heures)

TLE

FraisSource: Space-Track

Époque: Sep 14, 2026, 12:46 UTC

1 07127U 73086CR  26257.53259093 -.00000123  00000-0 -93935-3 0  9999
2 07127 101.8864 266.1498 0266219 150.2958   2.2521 12.00866062315843

Suivez DELTA 1 DEB en temps réel avec AllMySat

Download on the App Store